Starlink 35377

operational
NORAD ID: 66186 Int'l Des: 2025-243 Owner: SPXS Country: US Constellation: starlink
LEOCIRCULAR

About Starlink 35377

Description loading...

Live Position

Loading 3D Globe...

Upcoming Passes

Altitude History

Altitude vs Time

uPlot chart will show altitude changes over time

Two-Line Element Set

1 66186C 25243J 25299.73590278 .00874460 00000+0 14339-2 0 2994
2 66186 53.1579 157.0732 0009482 275.2252 20.0776 16.01531623 13
Epoch: Oct 26, 2025 • Age: 117 hours

Current Status

Altitude 256.3 km
Velocity 7.76 km/s
Sub-Earth Point 48.80°N, 96.97°W
Launch Date Oct 26, 2025
Age 4 days
Type internet

Technical Details

Classification Payload
Mass 575.00 kg
Dry Mass 530.00 kg
Total Mass 575.00 kg
Length 0.30 m
Diameter 4.10 m
Span 29.00 m
Shape Box + pan
Manufacturer SPXS
Bus Type Starlink V2MO
Phase Status In Orbit
Owner/State SPXS/US

Large Constellations

Loading constellations...